Home   Weather   Birmingham   Past weeks

Flag for United Kingdom Past Weather in Birmingham, England, United Kingdom — Yesterday and Last 2 Weeks

Now
45 °F

Scattered clouds.


Feels Like: 38 °F
Forecast: 33 / 47 °F
Wind: 15 mph from Northwest

Location: Birmingham / Airport

Current Time: Apr 25, 2017 at 11:52:26 am

Latest Report: Apr 25, 2017 at 11:20 am


Visibility: N/A

Pressure: 29.98 "Hg

Humidity: 49%

Dew Point: 27 °F

Location of BirminghamLocation

Past Weather in Birmingham — Graph

°F

Birmingham Temperature Yesterday

Maximum temperature yesterday: 54 °F (at 11:50 am)
Minimum temperature yesterday: 39 °F (at 12:50 am)
Average temperature yesterday: 47 °F

High & Low Weather Summary for the Past Weeks

 TemperatureHumidityPressure
High59 °F (Apr 11, 5:20 pm)100% (Apr 12, 7:20 pm)30.63 "Hg (Apr 12, 7:20 pm)
Low32 °F (Apr 23, 3:50 am)35% (Apr 18, 5:50 pm)29.89 "Hg (Apr 25, 3:50 am)
Average49 °F70%30.25 "Hg
* Reported Apr 10 10:20 am — Apr 25 10:20 am, Birmingham, Weather by CustomWeather, © 2017

Note: Actual official high and low records may vary slightly from our data, if they occured in-between our weather recording intervals... More about our weather records

Advertising

Birmingham Weather History for the Previous 24 Hours

Scroll right to see more
 ConditionsComfort  
Time TempWeatherWind HumidityBarometerVisibility
10:20 am
Tue, Apr 25
43 °FScattered clouds.17 mph49%29.95 "HgN/A
9:50 am43 °FScattered clouds.13 mph49%29.95 "HgN/A
9:20 am43 °FPassing clouds.13 mph57%29.95 "HgN/A
8:50 am41 °FPassing clouds.13 mph61%29.95 "HgN/A
8:20 am39 °FPassing clouds.13 mph65%29.95 "HgN/A
7:50 am39 °FPassing clouds.9 mph70%29.95 "HgN/A
7:20 am37 °FPassing clouds.6 mph93%29.95 "HgN/A
6:50 am37 °FScattered clouds.6 mph100%29.92 "HgN/A
6:20 am36 °FPartly sunny.10 mph100%29.92 "HgN/A
5:50 am36 °FPartly sunny.12 mph100%29.92 "HgN/A
5:20 am36 °FPassing clouds.10 mph100%29.92 "HgN/A
4:50 am36 °FPassing clouds.10 mph93%29.89 "HgN/A
4:20 am36 °FMostly cloudy.6 mph93%29.89 "HgN/A
3:50 am36 °FPartly cloudy.7 mph93%29.89 "HgN/A
3:20 am36 °FPassing clouds.9 mph70%29.92 "HgN/A
2:50 am37 °FPassing clouds.6 mph65%29.92 "HgN/A
2:20 am37 °FClear.9 mph60%29.92 "Hg10 mi
1:50 am37 °FPassing clouds.7 mph60%29.92 "HgN/A
1:20 am37 °FClear.10 mph60%29.92 "Hg10 mi
12:50 am37 °FClear.10 mph60%29.92 "Hg10 mi
12:20 am37 °FPassing clouds.9 mph65%29.95 "HgN/A
11:50 pm
Mon, Apr 24
39 °FPassing clouds.18 mph61%29.95 "HgN/A
11:20 pm39 °FPassing clouds.14 mph56%29.95 "HgN/A
10:50 pm39 °FClear.15 mph56%29.95 "Hg10 mi
10:20 pm39 °FClear.17 mph56%29.95 "Hg10 mi
9:50 pm41 °FClear.20 mph49%29.95 "Hg10 mi
8:50 pm43 °FClear.23 mph42%29.95 "Hg10 mi
8:20 pm43 °FClear.21 mph42%29.92 "Hg10 mi
7:50 pm45 °FSunny.21 mph46%29.92 "Hg10 mi
7:20 pm46 °FPassing clouds.20 mph46%29.92 "HgN/A
6:50 pm46 °FPassing clouds.23 mph50%29.92 "HgN/A
6:20 pm48 °FPassing clouds.22 mph46%29.92 "HgN/A
5:50 pm48 °FPassing clouds.21 mph46%29.92 "HgN/A
5:20 pm48 °FScattered clouds.21 mph58%29.92 "HgN/A
4:50 pm50 °FBroken clouds.22 mph58%29.92 "HgN/A
4:20 pm50 °FPartly sunny.17 mph62%29.92 "HgN/A
3:50 pm50 °FBroken clouds.15 mph67%29.92 "HgN/A
3:20 pm48 °FBroken clouds.13 mph87%29.92 "HgN/A
2:50 pm48 °FPartly sunny.17 mph82%29.95 "HgN/A
2:20 pm52 °FScattered showers. Scattered clouds.12 mph72%29.95 "HgN/A
1:50 pm50 °FScattered showers. Broken clouds.9 mph94%29.95 "HgN/A
1:20 pm50 °FScattered showers. Broken clouds.8 mph82%29.95 "HgN/A
12:50 pm48 °FLight rain. Broken clouds.9 mph94%29.98 "HgN/A
12:20 pm52 °FScattered showers. Broken clouds.8 mph67%29.98 "HgN/A
11:50 am54 °FPartly sunny.8 mph67%29.98 "HgN/A
11:20 am52 °FPartly sunny.8 mph72%29.98 "HgN/A
Weather by CustomWeather, © 2017

See weather overviewHow to use our weather pages